Lid_Strength_Index
12 14 15 13 13 15 15 16 16 15 13 14 14 14 12 12 14 13 13 13 13 12 10 12 12 11 10 10 9 8 6 6 7 7 7 8 9 10 11 10 9 10 10 9
14 15 12 12 13 14 15 16 16 14 13 14 14 14 13 12 13 12 11 12 12 12 12 13 13 11 11 10 8 9 7 8 7 6 8 9 10 12 12 12 12 12 11 12
14 13 11 12 13 14 15 16 16 15 14 15 16 16 15 13 13 12 12 11 11 11 11 13 13 12 11 11 9 8 7 7 8 10 12 12 12 12 12 13 13 14 13 13
13 12 12 13 14 13 16 13 14 15 16 18 16 19 16 14 13 14 12 12 12 11 12 13 13 12 12 11 9 9 7 8 9 11 11 11 10 11 12 13 14 15 14 15
14 13 13 13 13 12 14 13 14 15 16 18 18 19 17 16 15 13 12 11 12 12 13 13 13 12 11 10 9 9 7 8 10 10 10 10 11 14 14 15 15 16 16 16
13 11 11 11 12 11 12 14 15 16 17 19 17 17 18 17 14 14 11 12 13 13 14 14 14 13 12 11 9 9 8 10 11 11 11 10 14 15 16 16 16 16 17 18
14 13 12 12 13 13 13 14 18 20 21 19 18 19 15 14 13 13 12 11 14 14 15 15 14 13 12 11 9 8 9 11 11 11 11 13 13 14 15 16 16 17 18 18
16 17 13 12 11 13 14 14 18 23 22 20 17 19 16 14 13 13 13 13 14 14 15 15 14 13 12 11 9 8 11 12 12 12 13 13 14 14 14 15 16 17 17 18
16 17 14 13 13 11 15 16 13 17 24 22 19 17 15 14 14 13 13 15 15 14 15 15 15 14 13 11 10 10 11 12 13 13 14 15 14 15 16 16 17 17 17 18
14 17 15 14 13 13 14 13 17 18 23 25 19 19 17 15 14 14 13 14 14 15 15 16 15 14 13 12 11 11 11 12 13 14 14 14 14 15 16 17 18 18 18 18
13 15 17 15 16 16 16 16 17 16 18 22 24 18 15 14 13 13 14 13 14 14 15 15 15 14 13 13 14 13 12 13 14 14 14 15 15 16 17 17 18 18 18 18
13 14 19 17 15 15 16 15 15 18 20 19 19 17 15 14 14 14 13 13 14 14 15 16 15 15 15 15 15 14 14 13 14 14 15 15 16 17 17 18 18 18 19 19
11 14 18 17 17 16 16 15 13 15 17 18 20 16 15 15 14 14 14 13 14 15 16 16 16 16 15 15 15 15 14 14 15 15 15 16 16 17 17 18 18 19 19 19
9 13 15 17 16 15 16 16 14 14 16 17 16 14 14 15 14 14 14 14 14 15 16 17 17 16 15 15 15 15 15 15 15 15 16 16 17 17 17 18 18 19 19 19
10 15 13 13 13 13 15 15 14 15 14 16 15 14 12 12 13 12 13 13 14 15 15 16 16 16 16 16 15 15 15 15 15 16 16 16 16 17 17 18 19 19 19 19
10 15 13 15 13 13 14 13 13 14 14 13 13 14 10 11 11 13 12 12 13 14 14 15 16 16 16 16 15 15 15 16 16 16 16 16 17 17 18 18 19 19 19 20
12 13 15 17 14 14 17 14 13 13 12 13 15 12 10 11 12 12 11 12 12 12 13 13 14 15 15 15 15 16 15 16 16 16 16 16 17 17 18 18 19 20 20 20
12 14 14 17 15 21 14 12 11 12 11 11 11 10 10 10 11 11 12 12 11 12 12 12 13 14 14 15 15 15 16 16 16 16 17 17 17 17 18 19 19 19 19 19
9 12 15 18 18 15 14 15 14 14 13 10 11 10 10 9 13 11 11 11 11 12 12 12 12 13 14 15 15 16 17 17 17 16 17 17 17 17 18 19 19 19 19 19
10 11 14 16 19 20 14 16 15 11 15 11 10 10 10 13 16 11 14 14 13 14 14 14 14 14 15 16 16 17 17 17 17 16 17 17 16 17 18 18 18 18 18 19
14 14 16 16 17 16 13 16 14 16 14 18 14 10 11 13 12 15 14 15 15 15 15 15 16 16 16 17 17 17 18 18 17 17 17 17 16 17 17 17 17 18 18 19
15 16 16 15 17 19 13 14 14 12 16 16 15 14 14 14 15 15 15 15 16 16 16 16 17 17 18 17 17 18 18 17 17 17 17 16 16 16 16 17 18 18 18 19
15 13 14 13 14 13 13 12 13 13 14 14 14 14 15 15 15 15 14 15 15 16 16 17 17 18 18 17 17 18 17 16 17 17 17 16 16 16 16 16 17 18 18 18
12 12 12 13 11 11 13 13 14 14 14 16 15 15 15 15 16 16 17 15 16 18 17 18 16 16 16 15 15 15 15 15 14 15 16 15 16 16 15 15 15 16 16 16
12 12 14 13 11 12 11 12 12 12 14 15 15 15 14 15 16 16 17 17 16 17 18 17 16 15 16 16 16 15 15 13 14 14 15 14 14 14 14 14 14 14 14 13
12 12 14 14 11 11 10 11 12 13 14 14 14 15 15 15 15 16 16 17 17 18 18 17 18 18 20 20 21 20 19 17 16 17 16 16 16 16 16 17 18 15 15 13